Tracking 29892 objects as of 21-Nov-2024
HD Live streaming from Space Station
objects crossing your sky now

CHUANG XIN 16B (CX-16B)

Track CHUANG XIN 16B (CX-16B) now!
10-day predictions


NORAD ID: 53876
Int'l Code: 2022-102B
Perigee: 541.1 km
Apogee: 546.6 km
Inclination: 29.0 °
Period: 95.4 minutes
Semi major axis: 6914 km
RCS: Unknown
Launch date: August 23, 2022
Source: People's Republic of China (PRC)
Launch site: Xichang Space Center, China (XSC)
Your satellite tracking list
Your tracking list is empty




NASA's NSSDC Master Catalog

Two Line Element Set (TLE):
1 53876U 22102B   24325.81191764  .00021009  00000-0  12538-2 0  9992
2 53876  28.9934 102.1238 0004002 146.5860 213.4993 15.09838309119041
Source of the keplerian elements: AFSPC